Overview Statistics Trail Chart Weather Telemetry Raw packets
 

This is the latest recevied weather packets stored in our database for station/object KD7AWQ. If no packets are shown the sender has not sent any weather packets the latest 10 day(s).

<< 93 94 95 96 97 98 99 >>
Time Temp. Humidity Pressure Rain* Wind** Luminosity Snow
1787751425 29.44° C 23% 1188.2 hPa 0 mm - 59 W/m² -
1787751120 28.89° C 23% 1188.2 hPa 0 mm - 50 W/m² -
1787750815 28.89° C 23% 1188.2 hPa 0 mm - 40 W/m² -
1787750510 29.44° C 23% 1188.1 hPa 0 mm - 33 W/m² -
1787750205 28.89° C 23% 1188 hPa 0 mm - 28 W/m² -
1787749901 28.89° C 23% 1187.8 hPa 0 mm - 24 W/m² -
1787749596 28.33° C 24% 1187.9 hPa 0 mm - 18 W/m² -
1787749292 28.33° C 24% 1187.9 hPa 0 mm - 11 W/m² -
1787748986 27.78° C 24% 1187.5 hPa 0 mm - 7 W/m² -
1787748680 27.78° C 25% 1187.3 hPa 0 mm - 4 W/m² -
1787748376 27.78° C 24% 1187.7 hPa 0 mm - 2 W/m² -
1787748073 28.33° C 24% 1187.7 hPa 0 mm - 1 W/m² -
1787747772 28.89° C 23% 1187.3 hPa 0 mm - 0 W/m² -
1787747467 28.33° C 24% 1187.5 hPa 0 mm - 0 W/m² -
1787747162 28.33° C 24% 1187.4 hPa 0 mm - 0 W/m² -
1787746858 28.33° C 24% 1187.5 hPa 0 mm - 0 W/m² -
1787746557 29.44° C 23% 1187.5 hPa 0 mm - 0 W/m² -
1787746251 30.56° C 21% 1187.3 hPa 0 mm - 0 W/m² -
1787745950 30.56° C 20% 1187.1 hPa 0 mm - 0 W/m² -
1787745644 30.56° C 20% 1187.2 hPa 0 mm - 0 W/m² -
1787745339 30.56° C 20% 1186.9 hPa 0 mm - 0 W/m² -
1787745038 30.56° C 21% 1187 hPa 0 mm - 0 W/m² -
1787744734 30.56° C 21% 1186.9 hPa 0 mm - 0 W/m² -
1787744431 31.11° C 20% 1187 hPa 0 mm - 0 W/m² -
1787744126 31.67° C 20% 1186.9 hPa 0 mm - 0 W/m² -

* Rain latest hour (hover to see other rain measurements)
** Current wind speed in m/s (hover to see current wind gust speed)